^^
Station Historical Data
Daily Summary for January 4, 2021 Units:  English    Metric   Both
Daily Weekly Monthly Yearly
  High: Low: Average:
Temperature: 33.1 °F 29.1 °F 31.4 °F
Dew Point: 29.4 °F 25.2 °F 27.7 °F
Humidity: 88% 83% 86%
Wind Speed: 10mph 1mph 5.4mph
Wind Gust: 13mph - -
Wind- - SW
Pressure: 30.02 in 29.90 in -
Precipitation: 0.00 in    
 
 
Tabular Data for January 4, 2021
Time Temperature Dew Point Pressure Wind Wind Speed Wind Gust Humidity Rainfall Rate (Hourly) solar
00:00 30.4 °F 26.1 °F 29.98 in WSW 3 mph 3 mph 84% 0.00 in 0 W/m2
00:05 30.3 °F 26 °F 29.98 in WSW 3 mph 3 mph 84% 0.00 in 0 W/m2
00:10 30.3 °F 26 °F 29.98 in WSW 2 mph 2 mph 84% 0.00 in 0 W/m2
00:15 30.2 °F 26.2 °F 29.98 in WSW 2 mph 2 mph 85% 0.00 in 0 W/m2
00:20 30.2 °F 26.2 °F 29.98 in South 3 mph 4 mph 85% 0.00 in 0 W/m2
00:25 30.1 °F 26.1 °F 29.99 in West 3 mph 4 mph 85% 0.00 in 0 W/m2
00:30 30 °F 26 °F 29.99 in WSW 4 mph 4 mph 85% 0.00 in 0 W/m2
00:35 30 °F 26 °F 29.99 in WSW 4 mph 4 mph 85% 0.00 in 0 W/m2
00:40 29.9 °F 26.2 °F 29.99 in WSW 4 mph 4 mph 86% 0.00 in 0 W/m2
00:45 29.8 °F 25.8 °F 29.99 in WNW 4 mph 4 mph 85% 0.00 in 0 W/m2
00:50 29.7 °F 25.7 °F 29.99 in West 4 mph 4 mph 85% 0.00 in 0 W/m2
00:55 29.6 °F 25.6 °F 29.99 in SW 4 mph 4 mph 85% 0.00 in 0 W/m2
01:00 29.5 °F 25.5 °F 29.99 in WSW 4 mph 4 mph 85% 0.00 in 0 W/m2
01:05 29.5 °F 25.5 °F 29.99 in West 4 mph 4 mph 85% 0.00 in 0 W/m2
01:10 29.5 °F 25.5 °F 29.99 in WSW 4 mph 4 mph 85% 0.00 in 0 W/m2
01:15 29.4 °F 25.4 °F 29.99 in WNW 4 mph 4 mph 85% 0.00 in 0 W/m2
01:20 29.4 °F 25.4 °F 30.00 in SW 4 mph 6 mph 85% 0.00 in 0 W/m2
01:25 29.4 °F 25.4 °F 30.00 in West 4 mph 6 mph 85% 0.00 in 0 W/m2
01:30 29.2 °F 25.3 °F 30.00 in WSW 5 mph 5 mph 85% 0.00 in 0 W/m2
01:35 29.2 °F 25.3 °F 30.00 in WSW 4 mph 5 mph 85% 0.00 in 0 W/m2
01:40 29.2 °F 25.3 °F 30.00 in WSW 4 mph 4 mph 85% 0.00 in 0 W/m2
01:45 29.2 °F 25.3 °F 30.00 in SW 5 mph 5 mph 85% 0.00 in 0 W/m2
01:50 29.1 °F 25.2 °F 30.00 in SSW 5 mph 5 mph 85% 0.00 in 0 W/m2
01:55 29.2 °F 25.3 °F 30.01 in SSW 4 mph 5 mph 85% 0.00 in 0 W/m2
02:00 29.2 °F 25.5 °F 30.01 in SW 4 mph 4 mph 86% 0.00 in 0 W/m2
02:05 29.4 °F 25.7 °F 30.01 in SSW 4 mph 9 mph 86% 0.00 in 0 W/m2
02:10 29.4 °F 25.7 °F 30.01 in WSW 5 mph 10 mph 86% 0.00 in 0 W/m2
02:15 29.4 °F 25.7 °F 30.01 in West 5 mph 10 mph 86% 0.00 in 0 W/m2
02:20 29.4 °F 25.7 °F 30.01 in SW 5 mph 5 mph 86% 0.00 in 0 W/m2
02:25 29.5 °F 25.8 °F 30.01 in SSW 5 mph 6 mph 86% 0.00 in 0 W/m2
02:30 29.5 °F 25.8 °F 30.01 in SW 5 mph 5 mph 86% 0.00 in 0 W/m2
02:35 29.6 °F 25.9 °F 30.01 in WSW 4 mph 5 mph 86% 0.00 in 0 W/m2
02:40 29.5 °F 25.8 °F 30.01 in SW 4 mph 4 mph 86% 0.00 in 0 W/m2
02:45 29.5 °F 25.8 °F 30.00 in WSW 4 mph 4 mph 86% 0.00 in 0 W/m2
02:50 29.5 °F 25.8 °F 30.00 in West 5 mph 5 mph 86% 0.00 in 0 W/m2
02:55 29.6 °F 25.9 °F 30.00 in WSW 5 mph 5 mph 86% 0.00 in 0 W/m2
03:00 29.6 °F 25.9 °F 30.01 in SSW 3 mph 3 mph 86% 0.00 in 0 W/m2
03:05 29.6 °F 25.9 °F 30.01 in SW 3 mph 3 mph 86% 0.00 in 0 W/m2
03:10 29.7 °F 26.3 °F 30.01 in West 3 mph 6 mph 87% 0.00 in 0 W/m2
03:15 29.8 °F 26.4 °F 30.01 in SW 4 mph 6 mph 87% 0.00 in 0 W/m2
03:20 29.9 °F 26.2 °F 30.01 in SW 3 mph 5 mph 86% 0.00 in 0 W/m2
03:25 30 °F 26.6 °F 30.00 in SW 3 mph 5 mph 87% 0.00 in 0 W/m2
03:30 30 °F 26.6 °F 30.00 in SW 2 mph 4 mph 87% 0.00 in 0 W/m2
03:35 30.1 °F 26.7 °F 30.00 in SW 2 mph 4 mph 87% 0.00 in 0 W/m2
03:40 30.2 °F 26.8 °F 30.00 in SW 4 mph 5 mph 87% 0.00 in 0 W/m2
03:45 30.3 °F 26.9 °F 30.00 in WSW 5 mph 5 mph 87% 0.00 in 0 W/m2
03:50 30.4 °F 27 °F 30.00 in SSW 5 mph 5 mph 87% 0.00 in 0 W/m2
03:55 30.4 °F 27 °F 30.00 in SSW 4 mph 5 mph 87% 0.00 in 0 W/m2
04:00 30.5 °F 27.1 °F 30.00 in SSW 3 mph 4 mph 87% 0.00 in 0 W/m2
04:05 30.5 °F 27.1 °F 30.00 in SW 4 mph 4 mph 87% 0.00 in 0 W/m2
04:10 30.4 °F 27 °F 30.00 in SW 4 mph 4 mph 87% 0.00 in 0 W/m2
04:15 30.5 °F 27.1 °F 30.00 in SW 4 mph 4 mph 87% 0.00 in 0 W/m2
04:20 30.6 °F 27.2 °F 30.00 in South 4 mph 4 mph 87% 0.00 in 0 W/m2
04:25 30.6 °F 27.2 °F 30.00 in SSW 4 mph 4 mph 87% 0.00 in 0 W/m2
04:30 30.5 °F 27.1 °F 30.00 in South 2 mph 2 mph 87% 0.00 in 0 W/m2
04:35 30.6 °F 27.2 °F 30.00 in WNW 1 mph 2 mph 87% 0.00 in 0 W/m2
04:40 30.6 °F 27.5 °F 30.00 in SSW 2 mph 5 mph 88% 0.00 in 0 W/m2
04:45 30.6 °F 27.5 °F 30.00 in South 3 mph 5 mph 88% 0.00 in 0 W/m2
04:50 30.7 °F 27.3 °F 30.00 in SSW 4 mph 4 mph 87% 0.00 in 0 W/m2
04:55 30.8 °F 27.4 °F 30.00 in SSW 4 mph 6 mph 87% 0.00 in 0 W/m2
05:00 30.9 °F 27.8 °F 30.00 in SW 4 mph 4 mph 88% 0.00 in 0 W/m2
05:05 31 °F 27.9 °F 30.00 in SW 4 mph 8 mph 88% 0.00 in 0 W/m2
05:10 31.2 °F 28.1 °F 30.00 in SSW 3 mph 7 mph 88% 0.00 in 0 W/m2
05:15 31.3 °F 28.2 °F 30.00 in SW 4 mph 7 mph 88% 0.00 in 0 W/m2
05:20 31.4 °F 28.3 °F 30.00 in SW 5 mph 5 mph 88% 0.00 in 0 W/m2
05:25 31.5 °F 28.1 °F 30.00 in SW 5 mph 7 mph 87% 0.00 in 0 W/m2
05:30 31.6 °F 28.2 °F 30.00 in SW 5 mph 5 mph 87% 0.00 in 0 W/m2
05:35 31.6 °F 28.2 °F 30.00 in SSW 5 mph 5 mph 87% 0.00 in 0 W/m2
05:40 31.7 °F 28.3 °F 30.00 in WSW 5 mph 5 mph 87% 0.00 in 0 W/m2
05:45 31.7 °F 28.3 °F 30.00 in SW 6 mph 6 mph 87% 0.00 in 0 W/m2
05:50 31.8 °F 28.4 °F 30.00 in WSW 6 mph 6 mph 87% 0.00 in 0 W/m2
05:55 31.9 °F 28.5 °F 30.00 in SSW 6 mph 6 mph 87% 0.00 in 0 W/m2
06:00 31.9 °F 28.5 °F 30.00 in SW 5 mph 5 mph 87% 0.00 in 0 W/m2
06:05 31.9 °F 28.5 °F 30.00 in SW 4 mph 5 mph 87% 0.00 in 0 W/m2
06:10 31.9 °F 28.5 °F 30.00 in SW 4 mph 4 mph 87% 0.00 in 0 W/m2
06:15 32 °F 28.6 °F 30.00 in SSW 4 mph 5 mph 87% 0.00 in 0 W/m2
06:20 32 °F 28.6 °F 30.00 in SW 3 mph 3 mph 87% 0.00 in 0 W/m2
06:25 31.9 °F 28.8 °F 30.00 in SW 4 mph 5 mph 88% 0.00 in 0 W/m2
06:30 32 °F 28.6 °F 30.00 in WSW 4 mph 5 mph 87% 0.00 in 0 W/m2
06:35 32 °F 28.8 °F 30.00 in SW 4 mph 5 mph 88% 0.00 in 0 W/m2
06:40 32 °F 28.6 °F 30.00 in SW 5 mph 8 mph 87% 0.00 in 0 W/m2
06:45 32.1 °F 28.7 °F 30.00 in SW 5 mph 8 mph 87% 0.00 in 0 W/m2
06:50 32.1 °F 28.7 °F 30.00 in SSW 5 mph 7 mph 87% 0.00 in 0 W/m2
06:55 32.1 °F 28.7 °F 30.00 in SW 5 mph 7 mph 87% 0.00 in 0 W/m2
07:00 32.1 °F 28.9 °F 30.00 in SW 5 mph 5 mph 88% 0.00 in 0 W/m2
07:05 32.1 °F 28.7 °F 30.00 in SW 4 mph 5 mph 87% 0.00 in 0 W/m2
07:10 32.2 °F 29 °F 30.00 in SW 4 mph 6 mph 88% 0.00 in 0 W/m2
07:15 32.2 °F 29 °F 29.99 in SSW 4 mph 6 mph 88% 0.00 in 0 W/m2
07:20 32.1 °F 28.9 °F 30.00 in SW 5 mph 5 mph 88% 0.00 in 0 W/m2
07:25 32.1 °F 28.9 °F 30.00 in WSW 5 mph 6 mph 88% 0.00 in 0 W/m2
07:30 32.1 °F 28.7 °F 30.00 in SW 5 mph 7 mph 87% 0.00 in 0 W/m2
07:35 32.1 °F 28.7 °F 30.00 in SW 4 mph 7 mph 87% 0.00 in 0 W/m2
07:40 32.1 °F 28.7 °F 30.00 in West 4 mph 4 mph 87% 0.00 in 0 W/m2
07:45 32.1 °F 28.7 °F 30.00 in SW 4 mph 4 mph 87% 0.00 in 0 W/m2
07:50 32.1 °F 28.7 °F 30.00 in WSW 4 mph 5 mph 87% 0.00 in 0 W/m2
07:55 32.1 °F 28.7 °F 30.00 in WSW 4 mph 5 mph 87% 0.00 in 0 W/m2
08:00 32.1 °F 28.7 °F 30.00 in SW 5 mph 10 mph 87% 0.00 in 0 W/m2
08:05 32.1 °F 28.7 °F 30.00 in WSW 5 mph 10 mph 87% 0.00 in 0 W/m2
08:10 32.1 °F 28.7 °F 30.01 in WSW 5 mph 5 mph 87% 0.00 in 0 W/m2
08:15 32.1 °F 28.7 °F 30.01 in SSW 5 mph 8 mph 87% 0.00 in 5 W/m2
08:20 32 °F 28.6 °F 30.01 in WSW 7 mph 7 mph 87% 0.00 in 7 W/m2
08:25 32.1 °F 28.7 °F 30.01 in SW 7 mph 7 mph 87% 0.00 in 9 W/m2
08:30 32.1 °F 28.7 °F 30.01 in WSW 5 mph 5 mph 87% 0.00 in 11 W/m2
08:35 32.1 °F 28.7 °F 30.01 in WSW 5 mph 9 mph 87% 0.00 in 12 W/m2
08:40 32 °F 28.3 °F 30.01 in WSW 6 mph 9 mph 86% 0.00 in 16 W/m2
08:45 32 °F 28.3 °F 30.01 in West 7 mph 9 mph 86% 0.00 in 18 W/m2
08:50 32.1 °F 28.4 °F 30.02 in SSW 8 mph 8 mph 86% 0.00 in 21 W/m2
08:55 32.1 °F 28.4 °F 30.02 in WSW 6 mph 8 mph 86% 0.00 in 23 W/m2
09:00 32.1 °F 28.4 °F 30.02 in WSW 6 mph 6 mph 86% 0.00 in 25 W/m2
09:05 32.1 °F 28.4 °F 30.02 in SSW 6 mph 9 mph 86% 0.00 in 28 W/m2
09:10 32.2 °F 28.5 °F 30.02 in SW 5 mph 5 mph 86% 0.00 in 30 W/m2
09:15 32.2 °F 28.5 °F 30.02 in SW 4 mph 5 mph 86% 0.00 in 32 W/m2
09:20 32.2 °F 28.5 °F 30.02 in SW 4 mph 4 mph 86% 0.00 in 37 W/m2
09:25 32.1 °F 28.4 °F 30.02 in SW 5 mph 5 mph 86% 0.00 in 39 W/m2
09:30 32.2 °F 28.5 °F 30.02 in SW 5 mph 6 mph 86% 0.00 in 40 W/m2
09:35 32.2 °F 28.5 °F 30.02 in WSW 4 mph 6 mph 86% 0.00 in 47 W/m2
09:40 32.2 °F 28.5 °F 30.01 in SW 4 mph 4 mph 86% 0.00 in 53 W/m2
09:45 32.2 °F 28.5 °F 30.01 in SSW 4 mph 4 mph 86% 0.00 in 56 W/m2
09:50 32.3 °F 28.6 °F 30.02 in SW 4 mph 4 mph 86% 0.00 in 62 W/m2
09:55 32.4 °F 28.7 °F 30.01 in SW 4 mph 4 mph 86% 0.00 in 65 W/m2
10:00 32.4 °F 29 °F 30.01 in WSW 3 mph 6 mph 87% 0.00 in 69 W/m2
10:05 32.4 °F 29 °F 30.01 in West 4 mph 6 mph 87% 0.00 in 74 W/m2
10:10 32.5 °F 29.1 °F 30.02 in West 5 mph 6 mph 87% 0.00 in 74 W/m2
10:15 32.4 °F 28.7 °F 30.01 in SW 5 mph 6 mph 86% 0.00 in 77 W/m2
10:20 32.5 °F 28.8 °F 30.02 in WSW 5 mph 5 mph 86% 0.00 in 81 W/m2
10:25 32.6 °F 29.2 °F 30.01 in SSW 4 mph 5 mph 87% 0.00 in 79 W/m2
10:30 32.6 °F 29.2 °F 30.01 in SW 3 mph 3 mph 87% 0.00 in 83 W/m2
10:35 32.6 °F 29.2 °F 30.01 in WSW 4 mph 4 mph 87% 0.00 in 83 W/m2
10:40 32.6 °F 29.2 °F 30.01 in SW 4 mph 5 mph 87% 0.00 in 81 W/m2
10:45 32.6 °F 29.2 °F 30.01 in SW 4 mph 5 mph 87% 0.00 in 88 W/m2
10:50 32.7 °F 29.3 °F 30.00 in WSW 4 mph 4 mph 87% 0.00 in 86 W/m2
10:55 32.8 °F 29.4 °F 30.00 in SW 4 mph 6 mph 87% 0.00 in 97 W/m2
11:00 32.8 °F 29.4 °F 30.00 in SSW 4 mph 5 mph 87% 0.00 in 97 W/m2
11:05 32.8 °F 29.1 °F 30.00 in SW 4 mph 5 mph 86% 0.00 in 105 W/m2
11:10 32.8 °F 29.1 °F 29.99 in South 4 mph 6 mph 86% 0.00 in 109 W/m2
11:15 32.8 °F 29.1 °F 29.99 in WSW 5 mph 6 mph 86% 0.00 in 121 W/m2
11:20 32.9 °F 29.2 °F 29.99 in SW 5 mph 5 mph 86% 0.00 in 128 W/m2
11:25 32.9 °F 29.2 °F 29.99 in SSW 5 mph 7 mph 86% 0.00 in 127 W/m2
11:30 32.8 °F 28.8 °F 29.98 in SSW 6 mph 6 mph 85% 0.00 in 125 W/m2
11:35 32.8 °F 28.5 °F 29.98 in SW 6 mph 6 mph 84% 0.00 in 132 W/m2
11:40 32.9 °F 28.9 °F 29.98 in SW 6 mph 7 mph 85% 0.00 in 141 W/m2
11:45 32.9 °F 28.6 °F 29.98 in WSW 5 mph 7 mph 84% 0.00 in 125 W/m2
11:50 33 °F 28.7 °F 29.98 in SSW 6 mph 7 mph 84% 0.00 in 130 W/m2
11:55 33 °F 28.7 °F 29.97 in SW 6 mph 7 mph 84% 0.00 in 132 W/m2
12:00 33 °F 28.7 °F 29.97 in SW 6 mph 6 mph 84% 0.00 in 139 W/m2
12:05 33 °F 28.7 °F 29.97 in SSW 6 mph 6 mph 84% 0.00 in 141 W/m2
12:10 33 °F 28.7 °F 29.97 in SSW 6 mph 7 mph 84% 0.00 in 132 W/m2
12:15 33 °F 28.7 °F 29.97 in SW 6 mph 7 mph 84% 0.00 in 127 W/m2
12:20 33 °F 28.7 °F 29.96 in SW 6 mph 6 mph 84% 0.00 in 125 W/m2
12:25 33.1 °F 28.8 °F 29.96 in SW 6 mph 6 mph 84% 0.00 in 146 W/m2
12:30 33.1 °F 28.8 °F 29.96 in WSW 5 mph 5 mph 84% 0.00 in 134 W/m2
12:35 33.1 °F 29.1 °F 29.95 in SW 5 mph 5 mph 85% 0.00 in 135 W/m2
12:40 33.1 °F 28.8 °F 29.95 in SW 5 mph 5 mph 84% 0.00 in 139 W/m2
12:45 33.1 °F 28.8 °F 29.95 in WSW 5 mph 6 mph 84% 0.00 in 149 W/m2
12:50 33 °F 28.4 °F 29.95 in SSW 6 mph 8 mph 83% 0.00 in 151 W/m2
12:55 33 °F 28.7 °F 29.94 in SSW 6 mph 8 mph 84% 0.00 in 149 W/m2
13:00 32.9 °F 28.3 °F 29.94 in South 7 mph 9 mph 83% 0.00 in 156 W/m2
13:05 32.8 °F 28.2 °F 29.94 in SW 7 mph 9 mph 83% 0.00 in 149 W/m2
13:10 32.8 °F 28.2 °F 29.94 in SSE 8 mph 11 mph 83% 0.00 in 149 W/m2
13:15 32.7 °F 28.1 °F 29.94 in SW 7 mph 11 mph 83% 0.00 in 134 W/m2
13:20 32.6 °F 28 °F 29.94 in SSW 7 mph 8 mph 83% 0.00 in 141 W/m2
13:25 32.7 °F 28.1 °F 29.94 in SW 7 mph 8 mph 83% 0.00 in 139 W/m2
13:30 32.6 °F 28 °F 29.94 in SW 7 mph 7 mph 83% 0.00 in 141 W/m2
13:35 32.6 °F 28 °F 29.94 in WSW 7 mph 7 mph 83% 0.00 in 123 W/m2
13:40 32.7 °F 28.4 °F 29.93 in SW 6 mph 6 mph 84% 0.00 in 118 W/m2
13:45 32.7 °F 28.4 °F 29.93 in WSW 5 mph 6 mph 84% 0.00 in 120 W/m2
13:50 32.7 °F 28.4 °F 29.93 in SW 5 mph 5 mph 84% 0.00 in 125 W/m2
13:55 32.7 °F 28.4 °F 29.93 in SW 6 mph 10 mph 84% 0.00 in 125 W/m2
14:00 32.7 °F 28.4 °F 29.93 in South 7 mph 11 mph 84% 0.00 in 128 W/m2
14:05 32.6 °F 28 °F 29.92 in SW 8 mph 11 mph 83% 0.00 in 128 W/m2
14:10 32.7 °F 28.4 °F 29.92 in SSW 7 mph 7 mph 84% 0.00 in 118 W/m2
14:15 32.6 °F 28 °F 29.92 in SW 7 mph 9 mph 83% 0.00 in 111 W/m2
14:20 32.6 °F 28.3 °F 29.92 in SSW 8 mph 8 mph 84% 0.00 in 105 W/m2
14:25 32.6 °F 28.3 °F 29.92 in SSW 7 mph 8 mph 84% 0.00 in 104 W/m2
14:30 32.6 °F 28 °F 29.92 in WSW 7 mph 8 mph 83% 0.00 in 97 W/m2
14:35 32.5 °F 28.2 °F 29.92 in WSW 8 mph 9 mph 84% 0.00 in 95 W/m2
14:40 32.5 °F 28.2 °F 29.92 in SW 8 mph 8 mph 84% 0.00 in 100 W/m2
14:45 32.4 °F 27.8 °F 29.92 in WSW 8 mph 8 mph 83% 0.00 in 88 W/m2
14:50 32.4 °F 28.1 °F 29.92 in SSW 8 mph 10 mph 84% 0.00 in 81 W/m2
14:55 32.3 °F 28 °F 29.92 in SSW 9 mph 10 mph 84% 0.00 in 77 W/m2
15:00 32.4 °F 28.1 °F 29.92 in WSW 8 mph 8 mph 84% 0.00 in 74 W/m2
15:05 32.4 °F 28.1 °F 29.93 in SW 8 mph 8 mph 84% 0.00 in 60 W/m2
15:10 32.4 °F 28.1 °F 29.93 in SSW 7 mph 8 mph 84% 0.00 in 58 W/m2
15:15 32.3 °F 28 °F 29.93 in SW 8 mph 8 mph 84% 0.00 in 56 W/m2
15:20 32.3 °F 28 °F 29.93 in SSW 8 mph 9 mph 84% 0.00 in 53 W/m2
15:25 32.3 °F 28.3 °F 29.93 in SW 7 mph 9 mph 85% 0.00 in 47 W/m2
15:30 32.3 °F 28.3 °F 29.93 in SW 7 mph 8 mph 85% 0.00 in 46 W/m2
15:35 32.2 °F 28.2 °F 29.93 in SW 7 mph 8 mph 85% 0.00 in 44 W/m2
15:40 32.2 °F 28.2 °F 29.93 in SW 7 mph 7 mph 85% 0.00 in 42 W/m2
15:45 32.2 °F 28.2 °F 29.93 in South 7 mph 7 mph 85% 0.00 in 39 W/m2
15:50 32.2 °F 28.2 °F 29.93 in SSW 6 mph 6 mph 85% 0.00 in 37 W/m2
15:55 32.1 °F 28.1 °F 29.93 in South 6 mph 7 mph 85% 0.00 in 35 W/m2
16:00 32.1 °F 28.4 °F 29.93 in South 6 mph 9 mph 86% 0.00 in 33 W/m2
16:05 32 °F 28 °F 29.93 in SW 6 mph 9 mph 85% 0.00 in 32 W/m2
16:10 32 °F 28 °F 29.93 in SSW 7 mph 9 mph 85% 0.00 in 32 W/m2
16:15 32 °F 28 °F 29.93 in SW 7 mph 9 mph 85% 0.00 in 26 W/m2
16:20 32 °F 28 °F 29.93 in SW 8 mph 8 mph 85% 0.00 in 21 W/m2
16:25 31.9 °F 27.9 °F 29.93 in SW 7 mph 8 mph 85% 0.00 in 18 W/m2
16:30 31.9 °F 27.9 °F 29.93 in SW 8 mph 8 mph 85% 0.00 in 14 W/m2
16:35 31.9 °F 27.9 °F 29.94 in SW 8 mph 8 mph 85% 0.00 in 12 W/m2
16:40 31.9 °F 28.2 °F 29.94 in SW 7 mph 7 mph 86% 0.00 in 11 W/m2
16:45 31.9 °F 28.2 °F 29.93 in WSW 7 mph 8 mph 86% 0.00 in 9 W/m2
16:50 31.8 °F 28.1 °F 29.93 in SSW 7 mph 7 mph 86% 0.00 in 7 W/m2
16:55 31.8 °F 28.1 °F 29.93 in SW 6 mph 9 mph 86% 0.00 in 7 W/m2
17:00 31.8 °F 27.8 °F 29.93 in SW 8 mph 13 mph 85% 0.00 in 5 W/m2
17:05 31.8 °F 27.8 °F 29.93 in SW 9 mph 13 mph 85% 0.00 in 0 W/m2
17:10 31.8 °F 27.8 °F 29.93 in SSW 9 mph 11 mph 85% 0.00 in 0 W/m2
17:15 31.8 °F 27.8 °F 29.93 in WSW 9 mph 11 mph 85% 0.00 in 0 W/m2
17:20 31.7 °F 27.7 °F 29.93 in NW 8 mph 8 mph 85% 0.00 in 0 W/m2
17:25 31.6 °F 27.6 °F 29.93 in SSW 6 mph 8 mph 85% 0.00 in 0 W/m2
17:30 31.6 °F 27.6 °F 29.93 in SSW 5 mph 5 mph 85% 0.00 in 0 W/m2
17:35 31.6 °F 27.9 °F 29.93 in South 4 mph 5 mph 86% 0.00 in 0 W/m2
17:40 31.6 °F 27.9 °F 29.93 in SSW 5 mph 5 mph 86% 0.00 in 0 W/m2
17:45 31.6 °F 27.9 °F 29.93 in SSW 5 mph 6 mph 86% 0.00 in 0 W/m2
17:50 31.6 °F 27.9 °F 29.93 in SW 5 mph 6 mph 86% 0.00 in 0 W/m2
17:55 31.5 °F 27.8 °F 29.93 in SSW 7 mph 10 mph 86% 0.00 in 0 W/m2
18:00 31.6 °F 27.6 °F 29.93 in SSW 9 mph 9 mph 85% 0.00 in 0 W/m2
18:05 31.6 °F 27.6 °F 29.93 in South 10 mph 10 mph 85% 0.00 in 0 W/m2
18:10 31.6 °F 27.6 °F 29.93 in WSW 10 mph 10 mph 85% 0.00 in 0 W/m2
18:15 31.6 °F 27.6 °F 29.93 in SSW 9 mph 10 mph 85% 0.00 in 0 W/m2
18:20 31.5 °F 27.8 °F 29.93 in SSW 8 mph 9 mph 86% 0.00 in 0 W/m2
18:25 31.5 °F 27.8 °F 29.93 in SW 8 mph 9 mph 86% 0.00 in 0 W/m2
18:30 31.5 °F 27.8 °F 29.93 in SSW 8 mph 8 mph 86% 0.00 in 0 W/m2
18:35 31.5 °F 27.8 °F 29.93 in SSW 7 mph 8 mph 86% 0.00 in 0 W/m2
18:40 31.5 °F 27.8 °F 29.94 in South 5 mph 5 mph 86% 0.00 in 0 W/m2
18:45 31.5 °F 27.8 °F 29.94 in South 5 mph 5 mph 86% 0.00 in 0 W/m2
18:50 31.5 °F 27.8 °F 29.94 in SSE 5 mph 5 mph 86% 0.00 in 0 W/m2
18:55 31.4 °F 27.7 °F 29.93 in South 6 mph 7 mph 86% 0.00 in 0 W/m2
19:00 31.3 °F 27.6 °F 29.94 in SSW 8 mph 8 mph 86% 0.00 in 0 W/m2
19:05 31.2 °F 27.2 °F 29.94 in SSW 8 mph 9 mph 85% 0.00 in 0 W/m2
19:10 31.2 °F 27.2 °F 29.94 in SSW 8 mph 10 mph 85% 0.00 in 0 W/m2
19:15 31.2 °F 27.2 °F 29.94 in SSW 8 mph 10 mph 85% 0.00 in 0 W/m2
19:20 31.2 °F 27.5 °F 29.94 in SSW 7 mph 7 mph 86% 0.00 in 0 W/m2
19:25 31.1 °F 27.4 °F 29.93 in SSW 8 mph 8 mph 86% 0.00 in 0 W/m2
19:30 31.1 °F 27.4 °F 29.93 in SSW 6 mph 7 mph 86% 0.00 in 0 W/m2
19:35 31.1 °F 27.4 °F 29.93 in SSW 5 mph 7 mph 86% 0.00 in 0 W/m2
19:40 31.1 °F 27.4 °F 29.93 in SSE 5 mph 5 mph 86% 0.00 in 0 W/m2
19:45 31.1 °F 27.4 °F 29.93 in SSW 3 mph 5 mph 86% 0.00 in 0 W/m2
19:50 31.1 °F 27.7 °F 29.93 in ESE 4 mph 4 mph 87% 0.00 in 0 W/m2
19:55 31 °F 27.6 °F 29.92 in East 5 mph 5 mph 87% 0.00 in 0 W/m2
20:00 31 °F 27.3 °F 29.92 in SSW 6 mph 8 mph 86% 0.00 in 0 W/m2
20:05 31 °F 27.3 °F 29.92 in South 7 mph 8 mph 86% 0.00 in 0 W/m2
20:10 31 °F 27.3 °F 29.92 in South 5 mph 7 mph 86% 0.00 in 0 W/m2
20:20 31 °F 27.3 °F 29.92 in South 6 mph 6 mph 86% 0.00 in 0 W/m2
20:25 31 °F 27.3 °F 29.92 in SSW 6 mph 6 mph 86% 0.00 in 0 W/m2
20:30 31 °F 27.6 °F 29.92 in ESE 5 mph 5 mph 87% 0.00 in 0 W/m2
20:35 31 °F 27.6 °F 29.92 in SW 4 mph 5 mph 87% 0.00 in 0 W/m2
20:40 31 °F 27.6 °F 29.92 in ESE 4 mph 5 mph 87% 0.00 in 0 W/m2
20:45 30.9 °F 27.5 °F 29.92 in SW 4 mph 5 mph 87% 0.00 in 0 W/m2
20:50 30.9 °F 27.5 °F 29.92 in ESE 5 mph 8 mph 87% 0.00 in 0 W/m2
20:55 30.9 °F 27.5 °F 29.92 in South 5 mph 8 mph 87% 0.00 in 0 W/m2
21:00 30.9 °F 27.5 °F 29.92 in South 5 mph 7 mph 87% 0.00 in 0 W/m2
21:05 30.8 °F 27.4 °F 29.91 in South 6 mph 7 mph 87% 0.00 in 0 W/m2
21:10 30.7 °F 27.3 °F 29.91 in SSW 6 mph 7 mph 87% 0.00 in 0 W/m2
21:15 30.7 °F 27.3 °F 29.91 in SW 7 mph 12 mph 87% 0.00 in 0 W/m2
21:20 30.6 °F 27.2 °F 29.91 in East 7 mph 7 mph 87% 0.00 in 0 W/m2
21:25 30.6 °F 27.2 °F 29.91 in SW 7 mph 10 mph 87% 0.00 in 0 W/m2
21:30 30.6 °F 27.2 °F 29.90 in SSE 8 mph 8 mph 87% 0.00 in 0 W/m2
21:35 30.6 °F 27.2 °F 29.90 in South 7 mph 8 mph 87% 0.00 in 0 W/m2
21:40 30.6 °F 27.2 °F 29.91 in SSE 6 mph 12 mph 87% 0.00 in 0 W/m2
21:45 30.6 °F 27.2 °F 29.91 in SW 8 mph 12 mph 87% 0.00 in 0 W/m2
21:50 30.6 °F 27.2 °F 29.91 in SW 7 mph 7 mph 87% 0.00 in 0 W/m2
21:55 30.6 °F 27.2 °F 29.91 in WSW 6 mph 7 mph 87% 0.00 in 0 W/m2
22:00 30.6 °F 27.2 °F 29.92 in SSW 6 mph 7 mph 87% 0.00 in 0 W/m2
22:05 30.5 °F 27.1 °F 29.92 in SW 6 mph 8 mph 87% 0.00 in 0 W/m2
22:10 30.4 °F 27 °F 29.91 in SW 8 mph 9 mph 87% 0.00 in 0 W/m2
22:15 30.4 °F 27 °F 29.91 in SSW 9 mph 9 mph 87% 0.00 in 0 W/m2
22:20 30.5 °F 27.1 °F 29.91 in South 8 mph 8 mph 87% 0.00 in 0 W/m2
22:25 30.4 °F 27 °F 29.91 in SW 7 mph 8 mph 87% 0.00 in 0 W/m2
22:30 30.4 °F 27 °F 29.91 in SW 6 mph 6 mph 87% 0.00 in 0 W/m2
22:35 30.4 °F 27 °F 29.91 in WSW 6 mph 10 mph 87% 0.00 in 0 W/m2
22:40 30.4 °F 27 °F 29.90 in SW 5 mph 8 mph 87% 0.00 in 0 W/m2
22:45 30.4 °F 27 °F 29.90 in SW 6 mph 8 mph 87% 0.00 in 0 W/m2
22:50 30.3 °F 27.2 °F 29.90 in WSW 6 mph 6 mph 88% 0.00 in 0 W/m2
22:55 30.3 °F 27.2 °F 29.90 in SW 5 mph 7 mph 88% 0.00 in 0 W/m2
23:00 30.3 °F 27.2 °F 29.91 in WSW 4 mph 4 mph 88% 0.00 in 0 W/m2
23:05 30.2 °F 26.8 °F 29.91 in WSW 4 mph 4 mph 87% 0.00 in 0 W/m2
23:10 30.2 °F 27.1 °F 29.90 in WSW 5 mph 7 mph 88% 0.00 in 0 W/m2
23:15 30.2 °F 26.8 °F 29.90 in WSW 4 mph 7 mph 87% 0.00 in 0 W/m2
23:20 30.2 °F 26.8 °F 29.91 in SW 4 mph 4 mph 87% 0.00 in 0 W/m2
23:25 30.2 °F 26.8 °F 29.91 in SW 5 mph 5 mph 87% 0.00 in 0 W/m2
23:30 30.1 °F 26.7 °F 29.91 in SW 5 mph 5 mph 87% 0.00 in 0 W/m2
23:35 30.1 °F 26.7 °F 29.91 in West 5 mph 5 mph 87% 0.00 in 0 W/m2
23:40 30 °F 26.6 °F 29.91 in WSW 6 mph 6 mph 87% 0.00 in 0 W/m2
23:45 30 °F 26.6 °F 29.91 in SW 5 mph 6 mph 87% 0.00 in 0 W/m2
23:50 30 °F 26.6 °F 29.90 in SW 5 mph 5 mph 87% 0.00 in 0 W/m2
23:55 30.1 °F 26.7 °F 29.90 in West 5 mph 6 mph 87% 0.00 in 0 W/m2
Sand Point, Michigan, USA
Compliments of Weather Underground - 2 mb